THY38H FIMP-FMMI

Flight info

Callsign THY38H
Flight time 1h 46m
Altitude 40000
Route RASMA2A RASMA UA400 TE TE1V
Aircraft A359/H-SDE2E3GHIJ3J4J5LM1ORWXY/LB1D1

Departure

Time 2026-04-30 07:23
Airport Sir Seewoosagur Ramgoolam International Airport (FIMP)

Arrival

Time 2026-04-30 09:10
Airport Ivato International Airport (FMMI)
Time Latitude Longitude Altitude Speed Heading
2026-04-30 07:06 -20.43388 57.68006 205 ft 0 kts 262°
2026-04-30 07:14 -20.43387 57.68019 208 ft 4 kts 262°
2026-04-30 07:14 -20.43383 57.68048 208 ft 4 kts 262°
2026-04-30 07:14 -20.43379 57.68076 208 ft 3 kts 262°
2026-04-30 07:15 -20.43378 57.68099 208 ft 4 kts 299°
2026-04-30 07:15 -20.43397 57.68113 208 ft 4 kts 354°
2026-04-30 07:15 -20.43423 57.68113 208 ft 4 kts
2026-04-30 07:15 -20.43432 57.68113 208 ft 0 kts 359°
2026-04-30 07:18 -20.43430 57.68113 193 ft 1 kts 359°
2026-04-30 07:18 -20.43405 57.68112 193 ft 6 kts 356°
2026-04-30 07:18 -20.43345 57.68103 201 ft 10 kts 348°
2026-04-30 07:19 -20.43269 57.68075 193 ft 13 kts 336°
2026-04-30 07:19 -20.43185 57.68023 198 ft 15 kts 323°
2026-04-30 07:19 -20.43111 57.67941 192 ft 14 kts 306°
2026-04-30 07:19 -20.43056 57.67840 196 ft 17 kts 297°
2026-04-30 07:20 -20.42999 57.67722 192 ft 16 kts 297°
2026-04-30 07:20 -20.42949 57.67648 204 ft 12 kts 323°
2026-04-30 07:20 -20.42878 57.67606 207 ft 12 kts 330°
2026-04-30 07:20 -20.42806 57.67551 206 ft 13 kts 323°
2026-04-30 07:21 -20.42737 57.67497 206 ft 12 kts 326°
2026-04-30 07:21 -20.42664 57.67465 208 ft 10 kts 341°
2026-04-30 07:21 -20.42613 57.67469 209 ft 6 kts 33°
2026-04-30 07:21 -20.42603 57.67498 199 ft 4 kts 96°
2026-04-30 07:22 -20.42642 57.67563 197 ft 14 kts 117°
2026-04-30 07:22 -20.42805 57.67903 192 ft 90 kts 117°
2026-04-30 07:22 -20.43201 57.68717 180 ft 155 kts 117°
2026-04-30 07:23 -20.43727 57.69813 718 ft 168 kts 117°
2026-04-30 07:23 -20.44303 57.70869 1674 ft 160 kts 128°
2026-04-30 07:23 -20.45232 57.71512 2221 ft 174 kts 166°
2026-04-30 07:23 -20.46495 57.71287 2515 ft 203 kts 210°
2026-04-30 07:24 -20.47646 57.70242 2829 ft 232 kts 224°
2026-04-30 07:24 -20.48837 57.68945 3263 ft 255 kts 224°
2026-04-30 07:24 -20.50128 57.67584 3966 ft 264 kts 223°
2026-04-30 07:24 -20.51468 57.66212 4786 ft 269 kts 223°
2026-04-30 07:25 -20.52822 57.64853 5648 ft 272 kts 222°
2026-04-30 07:25 -20.54217 57.63467 6532 ft 274 kts 222°
2026-04-30 07:25 -20.55625 57.62078 7380 ft 278 kts 222°
2026-04-30 07:25 -20.57056 57.60667 8236 ft 282 kts 222°
2026-04-30 07:26 -20.58511 57.59234 9104 ft 285 kts 222°
2026-04-30 07:26 -20.59976 57.57792 9963 ft 288 kts 222°
2026-04-30 07:26 -20.61465 57.56328 10741 ft 296 kts 222°
2026-04-30 07:26 -20.62953 57.54742 11130 ft 317 kts 230°
2026-04-30 07:27 -20.63961 57.52581 11462 ft 337 kts 256°
2026-04-30 07:27 -20.63978 57.50054 12059 ft 347 kts 279°
2026-04-30 07:27 -20.63450 57.47515 12757 ft 353 kts 283°
2026-04-30 07:27 -20.62855 57.44949 13480 ft 358 kts 282°
2026-04-30 07:28 -20.62263 57.42344 14183 ft 362 kts 283°
2026-04-30 07:28 -20.61343 57.39821 14840 ft 369 kts 298°
2026-04-30 07:28 -20.59937 57.37504 15499 ft 374 kts 303°
2026-04-30 07:28 -20.58421 57.35226 16125 ft 379 kts 304°
2026-04-30 07:29 -20.56902 57.32952 16749 ft 383 kts 303°
2026-04-30 07:29 -20.55352 57.30617 17357 ft 387 kts 303°
2026-04-30 07:29 -20.53792 57.28260 17947 ft 392 kts 303°
2026-04-30 07:29 -20.52210 57.25865 18526 ft 395 kts 303°
2026-04-30 07:30 -20.49008 57.21028 19795 ft 400 kts 303°
2026-04-30 07:30 -20.47346 57.18632 20414 ft 403 kts 308°
2026-04-30 07:30 -20.45481 57.16371 20993 ft 407 kts 311°
2026-04-30 07:31 -20.43574 57.14168 21563 ft 410 kts 311°
2026-04-30 07:31 -20.41626 57.11932 22144 ft 413 kts 311°
2026-04-30 07:31 -20.39662 57.09674 22708 ft 415 kts 311°
2026-04-30 07:31 -20.37693 57.07402 23255 ft 418 kts 311°
2026-04-30 07:32 -20.35887 57.05006 23785 ft 419 kts 303°
2026-04-30 07:32 -20.34484 57.02287 24286 ft 420 kts 291°
2026-04-30 07:32 -20.33604 56.99318 24806 ft 421 kts 280°
2026-04-30 07:32 -20.33111 56.96239 25339 ft 422 kts 277°
2026-04-30 07:33 -20.32692 56.93134 25889 ft 425 kts 276°
2026-04-30 07:33 -20.32271 56.90003 26457 ft 427 kts 276°
2026-04-30 07:33 -20.31842 56.86865 26995 ft 430 kts 276°
2026-04-30 07:33 -20.31406 56.83697 27513 ft 432 kts 276°
2026-04-30 07:34 -20.30968 56.80545 28028 ft 435 kts 276°
2026-04-30 07:34 -20.30522 56.77350 28534 ft 438 kts 276°
2026-04-30 07:34 -20.30070 56.74121 29031 ft 440 kts 276°
2026-04-30 07:34 -20.29616 56.70883 29503 ft 443 kts 276°
2026-04-30 07:35 -20.29161 56.67633 29960 ft 445 kts 276°
2026-04-30 07:35 -20.28701 56.64360 30408 ft 447 kts 276°
2026-04-30 07:35 -20.28237 56.61069 30823 ft 450 kts 276°
2026-04-30 07:35 -20.27772 56.57765 31227 ft 453 kts 276°
2026-04-30 07:36 -20.27302 56.54440 31650 ft 455 kts 276°
2026-04-30 07:36 -20.26827 56.51092 32031 ft 457 kts 276°
2026-04-30 07:36 -20.26358 56.47780 32396 ft 459 kts 276°
2026-04-30 07:36 -20.25879 56.44406 32777 ft 461 kts 276°
2026-04-30 07:37 -20.25397 56.41008 33142 ft 463 kts 277°
2026-04-30 07:37 -20.24914 56.37603 33490 ft 465 kts 277°
2026-04-30 07:37 -20.24428 56.34195 33842 ft 467 kts 277°
2026-04-30 07:37 -20.23938 56.30767 34170 ft 469 kts 277°
2026-04-30 07:38 -20.23446 56.27322 34457 ft 471 kts 277°
2026-04-30 07:38 -20.22955 56.23892 34699 ft 474 kts 277°
2026-04-30 07:38 -20.22456 56.20412 35002 ft 475 kts 277°
2026-04-30 07:38 -20.21957 56.16934 35376 ft 474 kts 277°
2026-04-30 07:39 -20.21458 56.13460 35734 ft 474 kts 277°
2026-04-30 07:39 -20.20965 56.10030 36053 ft 474 kts 277°
2026-04-30 07:39 -20.20464 56.06555 36347 ft 475 kts 277°
2026-04-30 07:39 -20.19963 56.03074 36649 ft 476 kts 277°
2026-04-30 07:40 -20.19482 55.99595 36943 ft 475 kts 277°
2026-04-30 07:40 -20.19029 55.96118 37321 ft 472 kts 276°
2026-04-30 07:40 -20.18588 55.92657 37722 ft 470 kts 276°
2026-04-30 07:40 -20.18150 55.89212 38024 ft 469 kts 276°
2026-04-30 07:41 -20.17712 55.85776 38270 ft 469 kts 277°
2026-04-30 07:41 -20.17268 55.82330 38524 ft 470 kts 277°
2026-04-30 07:41 -20.16821 55.78881 38762 ft 470 kts 277°
2026-04-30 07:41 -20.16376 55.75474 39009 ft 469 kts 277°
2026-04-30 07:42 -20.15926 55.72029 39218 ft 470 kts 277°
2026-04-30 07:42 -20.15472 55.68575 39447 ft 469 kts 277°
2026-04-30 07:42 -20.15020 55.65142 39689 ft 468 kts 277°
2026-04-30 07:42 -20.14568 55.61710 39966 ft 467 kts 277°
2026-04-30 07:43 -20.14116 55.58280 40042 ft 468 kts 277°
2026-04-30 07:43 -20.13217 55.51471 40053 ft 467 kts 277°
2026-04-30 07:44 -20.12273 55.44616 40060 ft 467 kts 277°
2026-04-30 07:44 -20.11304 55.37825 40042 ft 466 kts 277°
2026-04-30 07:45 -20.10330 55.30999 40045 ft 466 kts 277°
2026-04-30 07:45 -20.09359 55.24171 40053 ft 466 kts 277°
2026-04-30 07:46 -20.08392 55.17362 40059 ft 465 kts 277°
2026-04-30 07:46 -20.07426 55.10587 40049 ft 465 kts 277°
2026-04-30 07:47 -20.06449 55.03780 40058 ft 464 kts 277°
2026-04-30 07:47 -20.05476 54.96985 40052 ft 464 kts 277°
2026-04-30 07:48 -20.04499 54.90187 40060 ft 464 kts 277°
2026-04-30 07:48 -20.03525 54.83429 40058 ft 464 kts 277°
2026-04-30 07:49 -20.02543 54.76640 40063 ft 464 kts 277°
2026-04-30 07:49 -20.01557 54.69846 40050 ft 464 kts 277°
2026-04-30 07:50 -20.00575 54.63094 40059 ft 464 kts 278°
2026-04-30 07:50 -19.99584 54.56296 40050 ft 465 kts 278°
2026-04-30 07:51 -19.98586 54.49474 40058 ft 466 kts 278°
2026-04-30 07:51 -19.97585 54.42645 40052 ft 467 kts 278°
2026-04-30 07:52 -19.96588 54.35870 40051 ft 466 kts 278°
2026-04-30 07:52 -19.95582 54.29046 40049 ft 466 kts 278°
2026-04-30 07:53 -19.94745 54.23377 40051 ft 466 kts 278°
2026-04-30 07:53 -19.93570 54.15452 40049 ft 466 kts 278°
2026-04-30 07:54 -19.92722 54.09751 40060 ft 466 kts 278°
2026-04-30 07:54 -19.91713 54.02976 40063 ft 466 kts 278°
2026-04-30 07:55 -19.90695 53.96164 40055 ft 466 kts 278°
2026-04-30 07:55 -19.89676 53.89361 40055 ft 466 kts 278°
2026-04-30 07:56 -19.88652 53.82548 40071 ft 466 kts 278°
2026-04-30 07:56 -19.87627 53.75745 40058 ft 466 kts 278°
2026-04-30 07:57 -19.86607 53.68987 40065 ft 466 kts 278°
2026-04-30 07:57 -19.85576 53.62178 40065 ft 466 kts 278°
2026-04-30 07:58 -19.84540 53.55357 40069 ft 466 kts 278°
2026-04-30 07:58 -19.83513 53.48609 40064 ft 467 kts 278°
2026-04-30 07:59 -19.82473 53.41794 40058 ft 467 kts 278°
2026-04-30 07:59 -19.81432 53.34994 40062 ft 467 kts 278°
2026-04-30 08:00 -19.79863 53.24772 40066 ft 467 kts 278°
2026-04-30 08:00 -19.78816 53.17971 40063 ft 466 kts 278°
2026-04-30 08:01 -19.77767 53.11177 40077 ft 466 kts 278°
2026-04-30 08:01 -19.76715 53.04385 40077 ft 466 kts 278°
2026-04-30 08:02 -19.75139 52.94239 40075 ft 466 kts 278°
2026-04-30 08:03 -19.73025 52.80687 40077 ft 466 kts 278°
2026-04-30 08:04 -19.71961 52.73895 40076 ft 466 kts 278°
2026-04-30 08:04 -19.70896 52.67112 40076 ft 466 kts 278°
2026-04-30 08:05 -19.69826 52.60314 40078 ft 466 kts 278°
2026-04-30 08:05 -19.68757 52.53535 40082 ft 465 kts 278°
2026-04-30 08:06 -19.67685 52.46761 40082 ft 465 kts 278°
2026-04-30 08:06 -19.66610 52.39979 40083 ft 465 kts 278°
2026-04-30 08:07 -19.65538 52.33239 40082 ft 466 kts 278°
2026-04-30 08:07 -19.64459 52.26468 40082 ft 465 kts 278°
2026-04-30 08:08 -19.63378 52.19704 40082 ft 465 kts 278°
2026-04-30 08:08 -19.62295 52.12939 40081 ft 465 kts 278°
2026-04-30 08:09 -19.61210 52.06183 40082 ft 465 kts 278°
2026-04-30 08:09 -19.60122 51.99425 40081 ft 465 kts 278°
2026-04-30 08:10 -19.59039 51.92709 40090 ft 465 kts 278°
2026-04-30 08:10 -19.57945 51.85949 40091 ft 465 kts 278°
2026-04-30 08:11 -19.56848 51.79181 40091 ft 465 kts 278°
2026-04-30 08:11 -19.55749 51.72420 40091 ft 465 kts 278°
2026-04-30 08:12 -19.54654 51.65699 40091 ft 465 kts 278°
2026-04-30 08:12 -19.53548 51.58929 40091 ft 465 kts 278°
2026-04-30 08:13 -19.52442 51.52173 40092 ft 465 kts 278°
2026-04-30 08:13 -19.51331 51.45404 40091 ft 465 kts 278°
2026-04-30 08:14 -19.50225 51.38678 40091 ft 465 kts 278°
2026-04-30 08:14 -19.49110 51.31918 40091 ft 465 kts 278°
2026-04-30 08:15 -19.47991 51.25142 40091 ft 466 kts 278°
2026-04-30 08:15 -19.46876 51.18413 40091 ft 466 kts 278°
2026-04-30 08:16 -19.45756 51.11672 40093 ft 466 kts 278°
2026-04-30 08:16 -19.44629 51.04903 40101 ft 466 kts 278°
2026-04-30 08:17 -19.43506 50.98173 40100 ft 466 kts 278°
2026-04-30 08:17 -19.42373 50.91399 40073 ft 466 kts 278°
2026-04-30 08:18 -19.41237 50.84623 40075 ft 466 kts 278°
2026-04-30 08:18 -19.40107 50.77896 40077 ft 467 kts 278°
2026-04-30 08:19 -19.38967 50.71132 40077 ft 466 kts 278°
2026-04-30 08:19 -19.37825 50.64365 40076 ft 466 kts 278°
2026-04-30 08:20 -19.36680 50.57598 40076 ft 466 kts 278°
2026-04-30 08:20 -19.35533 50.50835 40074 ft 466 kts 278°
2026-04-30 08:21 -19.34391 50.44115 40069 ft 466 kts 278°
2026-04-30 08:21 -19.33237 50.37344 40066 ft 466 kts 278°
2026-04-30 08:22 -19.32082 50.30582 40073 ft 466 kts 278°
2026-04-30 08:22 -19.30885 50.23588 40071 ft 466 kts 278°
2026-04-30 08:23 -19.29726 50.16833 40072 ft 466 kts 278°
2026-04-30 08:24 -19.27493 50.03873 40077 ft 466 kts 278°
2026-04-30 08:24 -19.26330 49.97153 40076 ft 466 kts 278°
2026-04-30 08:25 -19.24572 49.87014 40076 ft 467 kts 279°
2026-04-30 08:26 -19.24505 49.86626 40060 ft 467 kts 279°
2026-04-30 08:26 -19.23327 49.79859 40076 ft 467 kts 279°
2026-04-30 08:27 -19.22148 49.73093 40069 ft 467 kts 279°
2026-04-30 08:27 -19.20972 49.66360 40070 ft 467 kts 279°
2026-04-30 08:28 -19.19786 49.59587 40068 ft 468 kts 279°
2026-04-30 08:28 -19.18602 49.52841 40072 ft 468 kts 279°
2026-04-30 08:29 -19.17412 49.46077 40063 ft 468 kts 279°
2026-04-30 08:29 -19.16217 49.39299 40076 ft 468 kts 279°
2026-04-30 08:30 -19.15021 49.32527 40096 ft 468 kts 279°
2026-04-30 08:30 -19.13819 49.25739 40122 ft 468 kts 279°
2026-04-30 08:31 -19.12616 49.18962 40127 ft 468 kts 279°
2026-04-30 08:31 -19.11419 49.12228 40133 ft 469 kts 279°
2026-04-30 08:32 -19.10209 49.05443 40129 ft 469 kts 279°
2026-04-30 08:32 -19.08997 48.98657 40138 ft 469 kts 279°
2026-04-30 08:33 -19.07790 48.91913 40137 ft 469 kts 279°
2026-04-30 08:33 -19.06571 48.85120 39858 ft 473 kts 279°
2026-04-30 08:33 -19.05958 48.81698 39608 ft 474 kts 279°
2026-04-30 08:34 -19.05340 48.78264 39363 ft 476 kts 279°
2026-04-30 08:34 -19.04722 48.74830 38991 ft 473 kts 279°
2026-04-30 08:34 -19.04108 48.71424 38418 ft 471 kts 279°
2026-04-30 08:34 -19.03492 48.68018 37775 ft 470 kts 279°
2026-04-30 08:35 -19.02877 48.64620 37118 ft 470 kts 279°
2026-04-30 08:35 -19.02271 48.61270 36442 ft 470 kts 279°
2026-04-30 08:35 -19.01658 48.57880 35810 ft 468 kts 279°
2026-04-30 08:35 -19.01048 48.54507 35289 ft 465 kts 279°
2026-04-30 08:36 -19.00438 48.51154 34767 ft 462 kts 279°
2026-04-30 08:36 -18.99835 48.47838 34244 ft 458 kts 279°
2026-04-30 08:36 -18.99235 48.44540 33723 ft 455 kts 279°
2026-04-30 08:36 -18.98639 48.41271 33207 ft 452 kts 279°
2026-04-30 08:37 -18.98046 48.38019 32691 ft 449 kts 279°
2026-04-30 08:37 -18.97457 48.34789 32181 ft 445 kts 279°
2026-04-30 08:37 -18.96881 48.31632 31671 ft 442 kts 279°
2026-04-30 08:37 -18.96299 48.28446 31173 ft 439 kts 279°
2026-04-30 08:38 -18.95719 48.25284 30667 ft 436 kts 279°
2026-04-30 08:38 -18.95338 48.23203 30339 ft 434 kts 279°
2026-04-30 08:38 -18.94743 48.20074 29869 ft 431 kts 281°
2026-04-30 08:38 -18.94095 48.16994 29386 ft 428 kts 281°
2026-04-30 08:39 -18.93441 48.13929 28893 ft 425 kts 281°
2026-04-30 08:39 -18.92803 48.10925 28404 ft 421 kts 281°
2026-04-30 08:39 -18.92167 48.07912 27935 ft 418 kts 281°
2026-04-30 08:39 -18.91535 48.04921 27427 ft 416 kts 281°
2026-04-30 08:40 -18.90909 48.01947 26947 ft 413 kts 281°
2026-04-30 08:40 -18.90288 47.98992 26458 ft 410 kts 281°
2026-04-30 08:40 -18.89674 47.96063 25971 ft 407 kts 281°
2026-04-30 08:40 -18.89070 47.93182 25484 ft 404 kts 281°
2026-04-30 08:41 -18.88463 47.90290 24992 ft 402 kts 281°
2026-04-30 08:41 -18.87856 47.87415 24519 ft 398 kts 281°
2026-04-30 08:41 -18.87257 47.84571 24020 ft 395 kts 281°
2026-04-30 08:41 -18.86659 47.81744 23522 ft 393 kts 282°
2026-04-30 08:42 -18.86068 47.78941 23042 ft 390 kts 281°
2026-04-30 08:42 -18.85479 47.76152 22553 ft 388 kts 281°
2026-04-30 08:42 -18.84893 47.73380 22066 ft 385 kts 281°
2026-04-30 08:42 -18.84311 47.70630 21589 ft 382 kts 281°
2026-04-30 08:43 -18.83736 47.67909 21112 ft 379 kts 281°
2026-04-30 08:43 -18.83162 47.65199 20633 ft 376 kts 281°
2026-04-30 08:43 -18.82591 47.62510 20157 ft 373 kts 281°
2026-04-30 08:43 -18.82026 47.59844 19684 ft 371 kts 281°
2026-04-30 08:44 -18.81471 47.57224 19219 ft 369 kts 281°
2026-04-30 08:44 -18.80912 47.54591 18754 ft 366 kts 281°
2026-04-30 08:44 -18.80449 47.51964 18283 ft 363 kts 273°
2026-04-30 08:44 -18.80392 47.49308 17839 ft 360 kts 266°
2026-04-30 08:45 -18.80478 47.46670 17380 ft 358 kts 265°
2026-04-30 08:45 -18.80545 47.44867 17068 ft 356 kts 266°
2026-04-30 08:45 -18.80640 47.42254 16610 ft 354 kts 266°
2026-04-30 08:46 -18.80729 47.39669 16157 ft 352 kts 266°
2026-04-30 08:46 -18.80816 47.37090 15712 ft 350 kts 266°
2026-04-30 08:46 -18.80902 47.34525 15263 ft 348 kts 266°
2026-04-30 08:46 -18.80986 47.31979 14816 ft 346 kts 266°
2026-04-30 08:47 -18.81066 47.29483 14383 ft 344 kts 267°
2026-04-30 08:47 -18.81147 47.26965 13961 ft 342 kts 267°
2026-04-30 08:47 -18.81228 47.24490 13678 ft 333 kts 267°
2026-04-30 08:47 -18.81304 47.22062 13284 ft 328 kts 267°
2026-04-30 08:48 -18.81378 47.19661 12839 ft 327 kts 267°
2026-04-30 08:48 -18.81453 47.17271 12392 ft 324 kts 267°
2026-04-30 08:48 -18.81526 47.14899 11949 ft 322 kts 267°
2026-04-30 08:48 -18.81601 47.12535 11503 ft 320 kts 267°
2026-04-30 08:49 -18.81460 47.10195 11050 ft 318 kts 284°
2026-04-30 08:49 -18.80492 47.08180 10908 ft 311 kts 311°
2026-04-30 08:49 -18.78810 47.06863 10776 ft 295 kts 339°
2026-04-30 08:49 -18.76861 47.06487 10638 ft 278 kts
2026-04-30 08:50 -18.75036 47.06951 10370 ft 267 kts 29°
2026-04-30 08:50 -18.73594 47.08105 10043 ft 256 kts 52°
2026-04-30 08:50 -18.72693 47.09666 9862 ft 250 kts 68°
2026-04-30 08:50 -18.72138 47.11384 9688 ft 246 kts 81°
2026-04-30 08:51 -18.72166 47.13168 9222 ft 244 kts 107°
2026-04-30 08:51 -18.72725 47.14837 8980 ft 239 kts 113°
2026-04-30 08:51 -18.73368 47.16436 8725 ft 234 kts 114°
2026-04-30 08:51 -18.74015 47.17992 8540 ft 228 kts 115°
2026-04-30 08:52 -18.74655 47.19505 8453 ft 228 kts 115°
2026-04-30 08:52 -18.75305 47.21034 8372 ft 228 kts 115°
2026-04-30 08:52 -18.75877 47.22585 8279 ft 224 kts 108°
2026-04-30 08:52 -18.76194 47.24166 8158 ft 217 kts 101°
2026-04-30 08:53 -18.76413 47.25737 7908 ft 215 kts 101°
2026-04-30 08:53 -18.76635 47.27299 7736 ft 216 kts 101°
2026-04-30 08:53 -18.76875 47.28863 7502 ft 214 kts 102°
2026-04-30 08:53 -18.77114 47.30403 7201 ft 210 kts 101°
2026-04-30 08:54 -18.77328 47.31892 6905 ft 205 kts 101°
2026-04-30 08:54 -18.77545 47.33361 6628 ft 199 kts 101°
2026-04-30 08:54 -18.77755 47.34788 6366 ft 194 kts 102°
2026-04-30 08:54 -18.77962 47.36180 6122 ft 189 kts 101°
2026-04-30 08:55 -18.78158 47.37518 5885 ft 179 kts 101°
2026-04-30 08:55 -18.78343 47.38774 5638 ft 167 kts 101°
2026-04-30 08:55 -18.78516 47.39927 5421 ft 156 kts 99°
2026-04-30 08:55 -18.78676 47.41017 5223 ft 144 kts 99°
2026-04-30 08:56 -18.78826 47.42035 5031 ft 140 kts 99°
2026-04-30 08:56 -18.78968 47.43040 4860 ft 137 kts 99°
2026-04-30 08:56 -18.79105 47.44051 4677 ft 139 kts 99°
2026-04-30 08:56 -18.79260 47.45066 4500 ft 141 kts 101°
2026-04-30 08:57 -18.79417 47.46086 4289 ft 140 kts 99°
2026-04-30 08:57 -18.79569 47.47069 4171 ft 129 kts 99°
2026-04-30 08:57 -18.79709 47.48004 4475 ft 132 kts 100°
2026-04-30 08:57 -18.79864 47.48951 4848 ft 137 kts 101°
2026-04-30 08:58 -18.80044 47.49993 5040 ft 153 kts 101°
2026-04-30 08:58 -18.80224 47.51118 5439 ft 152 kts 98°
2026-04-30 08:58 -18.80373 47.52221 5786 ft 158 kts 99°
2026-04-30 08:58 -18.80547 47.53478 6044 ft 189 kts 101°
2026-04-30 08:59 -18.80755 47.54924 6300 ft 215 kts 101°
2026-04-30 08:59 -18.80994 47.56557 6856 ft 226 kts 101°
2026-04-30 08:59 -18.81228 47.58194 7238 ft 236 kts 101°
2026-04-30 08:59 -18.80990 47.60009 7363 ft 268 kts 70°
2026-04-30 09:00 -18.79874 47.61636 7400 ft 282 kts 44°
2026-04-30 09:00 -18.78125 47.62609 7396 ft 290 kts 17°
2026-04-30 09:00 -18.76096 47.62684 7411 ft 296 kts 351°
2026-04-30 09:00 -18.75076 47.62396 7412 ft 297 kts 343°
2026-04-30 09:01 -18.73871 47.61910 7395 ft 297 kts 336°
2026-04-30 09:01 -18.72157 47.60705 7357 ft 298 kts 315°
2026-04-30 09:01 -18.71075 47.58893 7333 ft 295 kts 285°
2026-04-30 09:01 -18.70691 47.56779 7284 ft 293 kts 275°
2026-04-30 09:02 -18.70278 47.52492 7281 ft 292 kts 273°
2026-04-30 09:02 -18.70088 47.50345 7308 ft 293 kts 273°
2026-04-30 09:02 -18.69895 47.48200 7352 ft 294 kts 273°
2026-04-30 09:03 -18.69698 47.46077 7395 ft 294 kts 273°
2026-04-30 09:03 -18.69495 47.43936 7408 ft 293 kts 273°
2026-04-30 09:03 -18.69296 47.41792 7395 ft 295 kts 274°
2026-04-30 09:03 -18.69098 47.39637 7341 ft 295 kts 274°
2026-04-30 09:04 -18.68894 47.37472 7311 ft 296 kts 273°
2026-04-30 09:04 -18.68692 47.35317 7338 ft 295 kts 273°
2026-04-30 09:04 -18.68539 47.33166 7372 ft 292 kts 267°
2026-04-30 09:04 -18.68831 47.31123 7387 ft 271 kts 247°
2026-04-30 09:05 -18.69823 47.29559 7371 ft 246 kts 220°
2026-04-30 09:05 -18.71206 47.28657 7330 ft 225 kts 189°
2026-04-30 09:05 -18.72664 47.28806 7323 ft 207 kts 156°
2026-04-30 09:05 -18.73958 47.29473 7144 ft 210 kts 150°
2026-04-30 09:06 -18.75241 47.30225 7017 ft 211 kts 150°
2026-04-30 09:06 -18.76491 47.31044 6992 ft 212 kts 138°
2026-04-30 09:06 -18.77296 47.32305 6935 ft 204 kts 118°
2026-04-30 09:06 -18.77664 47.33736 6615 ft 203 kts 97°
2026-04-30 09:07 -18.77777 47.35204 6315 ft 200 kts 99°
2026-04-30 09:07 -18.78029 47.36625 6050 ft 195 kts 104°
2026-04-30 09:07 -18.78236 47.38017 5792 ft 188 kts 101°
2026-04-30 09:07 -18.78422 47.39341 5548 ft 177 kts 100°
2026-04-30 09:08 -18.78609 47.40573 5318 ft 163 kts 102°
2026-04-30 09:08 -18.78782 47.41707 5111 ft 151 kts 102°
2026-04-30 09:08 -18.78936 47.42751 4917 ft 140 kts 102°
2026-04-30 09:08 -18.79078 47.43754 4755 ft 139 kts 102°
2026-04-30 09:09 -18.79223 47.44760 4570 ft 138 kts 103°
2026-04-30 09:09 -18.79375 47.45777 4344 ft 140 kts 102°
2026-04-30 09:09 -18.79519 47.46776 4170 ft 134 kts 103°
2026-04-30 09:09 -18.79642 47.47565 4170 ft 81 kts 97°
2026-04-30 09:10 -18.79704 47.47966 4170 ft 34 kts 99°
2026-04-30 09:10 -18.79725 47.48093 4170 ft 14 kts 109°
2026-04-30 09:10 -18.79791 47.48119 4170 ft 10 kts 190°
2026-04-30 09:10 -18.79858 47.48106 4171 ft 9 kts 190°
2026-04-30 09:11 -18.79895 47.48088 4172 ft 5 kts 233°
2026-04-30 09:11 -18.79899 47.48053 4172 ft 6 kts 269°
2026-04-30 09:11 -18.79894 47.48002 4172 ft 8 kts 278°
2026-04-30 09:11 -18.79888 47.47957 4172 ft 4 kts 278°
2026-04-30 09:12 -18.79898 47.47934 4172 ft 3 kts 225°
2026-04-30 09:12 -18.79913 47.47930 4172 ft 2 kts 189°
2026-04-30 09:12 -18.79932 47.47927 4172 ft 4 kts 189°
2026-04-30 09:12 -18.79966 47.47921 4172 ft 6 kts 189°
2026-04-30 09:13 -18.79980 47.47919 4172 ft 0 kts 188°